Total_Precipitation_Accumulation
1.01 1.23 1.38 1.52 1.76 1.96 2.04 2.16 2.32 2.54 2.76 3.08 3.44 3.62 3.73 3.94 4.08 4.16 4.27 4.23 4.20 4.34 4.40 4.29 4.19 4.04 3.93 3.74 3.63 3.46 3.27 3.03 2.95 2.81 2.45 2.01 1.73 1.70 1.62 1.65 1.76 1.76 1.69
1.04 1.34 1.65 2.04 2.22 2.26 2.28 2.35 2.47 2.74 3.03 3.43 3.92 4.34 4.51 4.63 4.67 4.70 4.90 5.00 5.05 5.23 5.32 5.25 5.03 4.78 4.46 4.02 3.69 3.51 3.34 3.05 3.05 3.01 2.90 2.34 1.93 1.61 1.31 1.39 1.44 1.49 1.60
1.31 1.55 1.85 2.05 2.19 2.24 2.33 2.47 2.79 3.19 3.63 4.11 4.64 5.08 5.33 5.37 5.32 5.05 5.16 5.32 5.29 5.38 5.58 5.54 5.28 4.89 4.32 3.83 3.66 3.58 3.45 3.26 3.17 3.01 3.06 2.65 2.24 1.89 1.47 1.25 1.18 1.24 1.28
1.32 1.55 1.77 2.01 2.09 2.20 2.39 2.55 2.90 3.44 3.90 4.34 5.01 5.54 5.82 6.03 6.13 5.92 5.62 5.46 5.28 5.17 5.08 4.94 4.53 4.10 3.77 3.49 3.38 3.37 3.20 3.18 3.09 3.01 2.71 2.48 2.23 2.02 1.69 1.36 1.17 1.17 1.16
1.17 1.41 1.54 1.78 2.06 2.13 2.17 2.28 2.76 3.36 4.05 4.73 5.29 5.79 6.17 6.34 6.29 5.93 5.56 5.13 4.79 4.36 4.01 3.67 3.40 3.27 3.09 2.88 2.78 2.75 2.69 2.56 2.51 2.53 2.47 2.41 2.19 1.90 1.70 1.50 1.33 1.30 1.20
1.06 1.12 1.21 1.41 1.73 1.80 1.94 2.16 2.55 3.24 3.98 4.58 5.13 5.55 5.92 5.97 5.68 5.23 4.75 4.44 4.07 3.62 3.17 2.91 2.67 2.52 2.36 2.15 2.04 2.04 2.08 2.15 2.20 2.24 2.21 2.18 2.16 2.04 1.95 1.81 1.62 1.48 1.42
0.94 1.02 1.06 1.17 1.39 1.56 1.83 2.20 2.62 3.15 3.60 4.10 4.58 4.86 5.09 5.12 5.02 4.74 4.39 4.11 3.69 3.25 2.79 2.37 2.16 1.95 1.77 1.67 1.61 1.58 1.60 1.69 1.80 1.92 1.97 1.97 1.94 1.91 1.94 2.01 1.86 1.64 1.50
1.00 1.16 1.27 1.36 1.46 1.59 1.74 2.07 2.45 2.85 3.06 3.29 3.66 3.91 4.05 4.11 4.01 3.79 3.51 3.24 2.95 2.67 2.32 1.90 1.57 1.37 1.23 1.17 1.20 1.25 1.30 1.33 1.39 1.50 1.65 1.68 1.66 1.72 1.79 1.88 1.95 1.92 1.69
1.01 1.17 1.32 1.43 1.51 1.56 1.69 1.78 1.97 2.20 2.46 2.66 2.81 2.93 2.98 2.91 2.83 2.63 2.41 2.24 2.07 1.85 1.63 1.40 1.19 1.07 1.02 0.99 0.98 0.98 0.99 1.06 1.13 1.20 1.31 1.44 1.49 1.52 1.59 1.70 1.80 1.87 1.82
1.04 1.15 1.21 1.29 1.31 1.29 1.36 1.46 1.62 1.74 1.89 2.02 2.07 1.98 1.97 1.96 1.82 1.67 1.57 1.45 1.29 1.18 1.12 1.02 0.96 0.89 0.82 0.83 0.85 0.82 0.81 0.90 0.93 0.94 1.02 1.13 1.23 1.32 1.42 1.54 1.62 1.65 1.65
1.02 1.04 1.04 1.07 1.10 1.03 1.04 1.14 1.26 1.43 1.52 1.54 1.55 1.47 1.39 1.27 1.17 1.09 1.07 1.00 0.93 0.89 0.87 0.83 0.82 0.79 0.77 0.75 0.73 0.72 0.70 0.76 0.87 0.95 1.00 1.04 1.08 1.14 1.18 1.24 1.32 1.43 1.51
1.03 0.95 0.91 0.89 0.88 0.85 0.86 0.92 1.00 1.07 1.10 1.10 1.06 1.04 0.98 0.91 0.87 0.85 0.85 0.89 0.86 0.80 0.79 0.77 0.78 0.79 0.80 0.80 0.75 0.69 0.67 0.71 0.79 0.85 0.88 0.89 0.88 0.94 1.00 1.07 1.10 1.18 1.27
1.04 1.00 0.96 0.88 0.86 0.90 0.88 0.83 0.85 0.88 0.90 0.90 0.88 0.85 0.84 0.82 0.81 0.83 0.85 0.86 0.83 0.78 0.73 0.70 0.71 0.76 0.76 0.73 0.72 0.68 0.66 0.65 0.69 0.72 0.72 0.74 0.76 0.78 0.81 0.85 0.91 0.96 1.00
0.96 1.01 1.07 1.03 0.95 0.91 0.93 0.88 0.84 0.82 0.86 0.84 0.81 0.74 0.70 0.71 0.73 0.74 0.74 0.73 0.71 0.72 0.74 0.72 0.68 0.65 0.61 0.55 0.51 0.50 0.51 0.50 0.52 0.54 0.56 0.62 0.68 0.69 0.71 0.70 0.72 0.76 0.85
1.10 1.08 1.06 1.06 1.00 0.94 0.91 0.86 0.86 0.85 0.90 0.93 0.91 0.82 0.74 0.72 0.71 0.72 0.71 0.68 0.63 0.59 0.58 0.55 0.51 0.43 0.37 0.34 0.32 0.35 0.37 0.39 0.40 0.42 0.42 0.43 0.50 0.56 0.56 0.54 0.60 0.68 0.77
1.35 1.32 1.26 1.22 1.19 1.12 1.02 0.95 0.97 0.99 0.99 1.03 1.10 1.11 1.04 0.96 0.89 0.81 0.74 0.71 0.69 0.60 0.50 0.44 0.41 0.35 0.27 0.28 0.25 0.28 0.34 0.38 0.39 0.41 0.43 0.39 0.40 0.42 0.43 0.46 0.57 0.68 0.71
1.61 1.57 1.51 1.44 1.37 1.31 1.26 1.21 1.14 1.10 1.08 1.10 1.11 1.09 1.06 0.99 0.89 0.79 0.70 0.70 0.68 0.63 0.55 0.43 0.37 0.36 0.30 0.25 0.23 0.26 0.34 0.40 0.40 0.40 0.41 0.35 0.34 0.39 0.41 0.44 0.50 0.55 0.56
1.56 1.56 1.56 1.55 1.53 1.41 1.33 1.30 1.24 1.18 1.12 1.13 1.09 1.03 0.92 0.82 0.69 0.65 0.64 0.63 0.60 0.60 0.56 0.49 0.42 0.38 0.29 0.22 0.19 0.21 0.30 0.39 0.39 0.38 0.40 0.42 0.41 0.41 0.42 0.43 0.46 0.52 0.57
1.65 1.61 1.56 1.50 1.46 1.38 1.32 1.27 1.26 1.20 1.14 1.09 0.98 0.86 0.79 0.73 0.66 0.62 0.60 0.58 0.56 0.54 0.52 0.48 0.45 0.45 0.36 0.21 0.16 0.18 0.32 0.42 0.38 0.32 0.30 0.33 0.37 0.39 0.38 0.42 0.52 0.57 0.62
1.46 1.38 1.28 1.21 1.23 1.24 1.21 1.15 1.13 1.08 1.02 0.87 0.71 0.62 0.62 0.63 0.61 0.57 0.53 0.52 0.53 0.52 0.45 0.41 0.42 0.41 0.37 0.24 0.19 0.20 0.32 0.41 0.38 0.35 0.32 0.29 0.30 0.31 0.31 0.40 0.54 0.64 0.64
1.12 1.04 0.99 1.05 1.11 1.11 1.04 1.01 0.95 0.89 0.80 0.71 0.59 0.55 0.54 0.51 0.50 0.51 0.50 0.50 0.49 0.53 0.52 0.49 0.45 0.38 0.29 0.20 0.15 0.16 0.22 0.32 0.37 0.39 0.40 0.35 0.26 0.23 0.26 0.34 0.45 0.53 0.52
0.81 0.78 0.80 0.86 0.88 0.83 0.83 0.90 0.86 0.74 0.64 0.67 0.62 0.58 0.52 0.44 0.47 0.57 0.55 0.53 0.56 0.60 0.59 0.55 0.50 0.37 0.27 0.16 0.12 0.13 0.15 0.18 0.30 0.40 0.38 0.34 0.25 0.23 0.27 0.33 0.42 0.45 0.52
0.60 0.63 0.63 0.67 0.72 0.70 0.74 0.79 0.79 0.66 0.64 0.71 0.68 0.57 0.47 0.51 0.53 0.57 0.54 0.48 0.47 0.44 0.41 0.41 0.40 0.34 0.27 0.19 0.11 0.12 0.14 0.17 0.22 0.29 0.26 0.25 0.27 0.30 0.42 0.44 0.43 0.53 0.72
0.46 0.52 0.54 0.54 0.58 0.58 0.63 0.68 0.62 0.61 0.74 0.81 0.71 0.55 0.48 0.47 0.47 0.45 0.39 0.34 0.35 0.33 0.32 0.30 0.29 0.29 0.29 0.22 0.18 0.18 0.19 0.21 0.24 0.28 0.28 0.34 0.40 0.45 0.53 0.60 0.67 0.73 0.78
0.43 0.47 0.50 0.49 0.45 0.46 0.52 0.49 0.52 0.64 0.84 0.81 0.66 0.53 0.44 0.41 0.38 0.32 0.24 0.19 0.18 0.15 0.20 0.22 0.20 0.23 0.23 0.19 0.19 0.19 0.19 0.20 0.21 0.24 0.38 0.57 0.63 0.68 0.73 0.77 0.82 0.86 0.80
0.39 0.45 0.46 0.42 0.42 0.45 0.46 0.45 0.48 0.55 0.72 0.72 0.54 0.44 0.39 0.34 0.28 0.25 0.24 0.16 0.11 0.09 0.09 0.09 0.10 0.11 0.13 0.14 0.15 0.17 0.18 0.19 0.22 0.29 0.50 0.61 0.64 0.69 0.69 0.69 0.74 0.80 0.79